Location: Cisewo
(53.3833°N, 14.9000°E)
Time: 12:42:47
(UTC+00:00)

Cosmos 1151 Rocket - Pass Details

Date: 18 April 2021
Orbit: 593 x 614 km, 82.5° (Epoch: 16 May)

Event Time Altitude Azimuth Distance (km) Brightness Sun altitude
Exits shadow 23:21:43 52° 300° (WNW) 752 3.5 -25.3°
Drops below altitude 10° 23:25:44 10° 4° (N) 1,965 6.7 -25.2°
Sets 23:28:01 0° 9° (N) 2,878 7.9 -25.2°
